STARLINK-11193 [DTC]

Last updated on Sat Aug 03 2024 00:02:04 GMT+0000 (Coordinated Universal Time)

1 60195U 24124N 24215.27706830 .00032988 00000+0 20461-3 0 9996 2 60195 53.1582 162.3244 0001202 65.0298 295.0847 15.76745912 4741

Satellite not in orbit

STARLINK-11193 [DTC]